Location: Kings Park
(40.8862°N, 73.2573°W)
Time: 10:17:08
(UTC+00:00)

Cosmos 2297 Rocket - Pass Details

Date: 29 October 2020
Orbit: 838 x 845 km, 71.0° (Epoch: 23 November)

Event Time Altitude Azimuth Distance (km) Brightness Sun altitude
Rises 22:37:14 0° 338° (NNW) 3,412 5.5 -9.1°
Reaches altitude 10° 22:39:42 10° 341° (NNW) 2,473 4.8 -9.6°
Maximum altitude 22:45:22 70° 65° (ENE) 897 2.2 -10.6°
Drops below altitude 10° 22:51:00 10° 149° (SSE) 2,455 4.4 -11.7°
Sets 22:53:26 0° 152° (SSE) 3,385 5.1 -12.1°
